Weather reports worldwide

Advertisment
Charleville, France (7075): temperature & dewpoint: 13.07.2018 13:00:00 - 19.07.2018 13:00:00 (CEST)Charleville, France (7075): temperature 5cm: 13.07.2018 13:00:00 - 19.07.2018 13:00:00 (CEST)Charleville, France (7075): temperature -20cm & temperature -100cm: 13.07.2018 13:00:00 - 19.07.2018 13:00:00 (CEST)Charleville, France (7075): wind speed & gusts: 13.07.2018 13:00:00 - 19.07.2018 13:00:00 (CEST)Charleville, France (7075): wind direction: 13.07.2018 13:00:00 - 19.07.2018 13:00:00 (CEST)Charleville, France (7075): reduced air pressure: 13.07.2018 13:00:00 - 19.07.2018 13:00:00 (CEST)Charleville, France (7075): visibility: 13.07.2018 13:00:00 - 19.07.2018 13:00:00 (CEST)Charleville, France (7075): sunshine duration: 13.07.2018 13:00:00 - 19.07.2018 13:00:00 (CEST)Charleville, France (7075): precipitation: 13.07.2018 13:00:00 - 19.07.2018 13:00:00 (CEST)
Date & Time tt [°C] td [°C] tt 5cm [°C] tt -20cm [°C] tt -100cm [°C] ff [km/h] ff [kn] fx [km/h] fx [kn] dd ppp [hPa] vv [km] sd [min] rr [mm]
19.07.2018 13:00:00 26,2 7,7 33,8 19,8 17,2 11 6 22 12 NNW 1017,3 20 60 0,0
19.07.2018 12:00:00 26,9 9,7 34,2 19,8 17,2 5 3 19 10 SSE 1017,5 2,8 60 0,0
19.07.2018 11:00:00 25,2 11,7 28,2 19,8 17,2 4 2 11 6 E 1017,7 7 60 0,0
19.07.2018 10:00:00 23,2 14,2 22,9 19,8 17,2 3 2 6 4 ESE 1018,3 5 60 0,0
19.07.2018 09:00:00 20,4 14,3 21,6 19,9 17,2 1 1 5 3 S 1018,5 7 60 0,0
19.07.2018 08:00:00 15,4 12,0 14,2 20,1 17,2 3 1 5 3 NW 1019,1 17 60 0,0
19.07.2018 07:00:00 12,1 10,7 7,1 20,2 17,2 1 0 4 2 WSW 1019,3 6 35 0,0
19.07.2018 06:00:00 9,6 8,5 6,9 20,3 17,2 3 1 6 3 WNW 1019,2 6 0 0,0
19.07.2018 05:00:00 10,7 9,6 7,6 20,5 17,2 3 2 6 4 S 1019,1 0,6 0 0,0
19.07.2018 04:00:00 11,7 9,4 8,4 20,6 17,2 4 2 7 4 W 1019,2 2,3 0 0,0
19.07.2018 03:00:00 12,6 9,6 9,3 20,7 17,2 3 1 6 4 W 1019,3 0,5 0 0,0
19.07.2018 02:00:00 13,5 10,5 9,9 20,8 17,2 3 2 8 5 SW 1019,3 1,6 0 0,0
19.07.2018 01:00:00 14,3 10,1 9,8 20,9 17,2 6 3 9 5 NW 1019,1 18 0 0,0
19.07.2018 00:00:00 14,4 10,4 10,4 21,0 17,2 1 1 9 5 WNW 1018,6 3,3 0 0,0
18.07.2018 23:00:00 16,8 11,1 12,1 21,0 17,1 3 1 13 7 SSW 1018,0 3,9 0 0,0
18.07.2018 22:00:00 20,5 10,9 16,7 21,0 17,2 8 5 13 7 WNW 1017,5 20 13 0,0
18.07.2018 21:00:00 23,4 11,1 22,3 21,0 17,2 9 5 21 11 NNW 1017,1 20 60 0,0
18.07.2018 20:00:00 25,1 10,5 25,0 20,9 17,2 13 7 21 11 NNW 1016,9 20 58 0,0
18.07.2018 19:00:00 26,3 10,8 23,4 20,8 17,1 7 4 14 8 NNW 1016,6 20 26 0,0
18.07.2018 18:00:00 25,2 10,6 25,8 20,7 17,1 7 4 20 11 NNW 1017,0 20 50 0,0
18.07.2018 17:00:00 26,3 10,4 26,5 20,5 17,1 6 3 23 12 WNW 1017,2 20 18 0,0
18.07.2018 16:00:00 25,9 11,3 29,6 20,3 17,1 8 5 26 14 N 1017,4 20 33 0,0
18.07.2018 15:00:00 25,5 10,1 28,2 20,1 17,1 9 5 18 10 W 1017,8 20 26 0,0
18.07.2018 14:00:00 24,5 10,0 30,1 20,0 17,1 12 6 21 11 NW 1018,2 20 46 0,0
18.07.2018 13:00:00 25,7 11,5 30,8 19,9 17,1 5 3 23 12 SSW 1018,4 19 56 0,0
18.07.2018 12:00:00 23,8 11,1 31,2 19,9 17,1 5 3 21 11 WNW 1018,8 20 60 0,0
18.07.2018 11:00:00 22,0 12,3 25,5 19,9 17,1 4 2 8 5 S 1019,2 4,0 35 0,0
18.07.2018 10:00:00 19,6 12,4 19,7 20,0 17,1 3 2 8 4 ESE 1019,4 13 0 0,0
18.07.2018 09:00:00 16,9 11,6 16,6 20,0 17,1 5 3 11 6 WNW 1019,4 20 0 0,0
18.07.2018 08:00:00 15,2 11,4 14,6 20,1 17,1 5 3 8 4 WNW 1019,4 20 0 0,0
18.07.2018 07:00:00 14,0 11,3 13,0 20,2 17,1 5 3 7 4 WNW 1019,2 20 0 0,0
18.07.2018 06:00:00 13,4 10,9 12,1 20,4 17,1 5 3 8 4 NW 1019,2 20 0 0,0
18.07.2018 05:00:00 13,4 10,7 12,1 20,4 17,1 3 2 7 4 NE 1019,1 9 0 0,0
18.07.2018 04:00:00 12,7 11,1 11,9 20,6 17,1 6 3 8 4 ESE 1019,1 1,1 0 0,0
18.07.2018 03:00:00 12,3 10,7 8,2 20,7 17,1 2 1 5 3 W 1019,2 3,0 0 0,0
18.07.2018 02:00:00 12,2 9,8 8,4 20,8 17,1 2 1 8 5 W 1019,2 4,3 0 0,0
18.07.2018 01:00:00 14,0 10,6 9,7 20,9 17,1 5 3 9 5 WNW 1019,1 10 0 0,0
18.07.2018 00:00:00 14,9 10,7 10,3 21,0 17,1 3 2 9 5 WNW 1018,9 15 0 0,0
17.07.2018 23:00:00 15,3 11,3 10,9 21,0 17,1 2 1 7 4 WSW 1018,5 4,4 0 0,0
17.07.2018 22:00:00 19,6 11,1 14,8 21,0 17,1 5 3 15 8 WNW 1017,7 20 14 0,0
17.07.2018 21:00:00 22,1 11,5 21,1 21,0 17,1 12 6 24 13 NW 1016,9 20 60 0,0
17.07.2018 20:00:00 24,1 11,8 24,3 21,0 17,1 15 8 29 16 WNW 1016,5 20 60 0,0
17.07.2018 19:00:00 24,9 11,8 24,3 21,0 17,1 18 10 30 16 WNW 1016,3 20 46 0,0
17.07.2018 18:00:00 24,8 12,4 25,3 20,9 17,1 18 10 39 21 WNW 1016,3 20 21 0,0
17.07.2018 17:00:00 25,3 13,8 26,9 20,8 17,1 17 9 34 19 WNW 1016,2 20 26 0,0
17.07.2018 16:00:00 25,1 13,9 27,8 20,7 17,0 19 11 35 19 WNW 1016,4 20 36 0,0
17.07.2018 15:00:00 24,4 13,9 28,2 20,6 17,1 15 8 32 17 W 1016,5 19 18 0,0
17.07.2018 14:00:00 24,7 14,2 27,6 20,6 17,1 14 8 28 15 W 1016,6 10 31 0,0
17.07.2018 13:00:00 23,7 13,8 27,0 20,5 17,1 16 9 26 14 W 1016,8 20 18 0,0
17.07.2018 12:00:00 23,7 13,6 27,9 20,6 17,1 13 7 22 12 WNW 1016,5 20 35 0,0
17.07.2018 11:00:00 21,1 13,0 24,4 20,6 17,0 6 4 15 8 W 1016,7 20 25 0,0
17.07.2018 10:00:00 18,8 12,8 16,4 20,7 17,1 8 5 19 11 W 1016,6 20 3 0,0
17.07.2018 09:00:00 18,3 12,5 16,4 20,7 17,0 12 6 22 12 NW 1016,1 17 26 0,0
17.07.2018 08:00:00 18,4 11,5 16,9 20,8 17,0 9 5 14 8 W 1016,1 20 57 0,0
17.07.2018 07:00:00 16,1 12,1 12,3 20,9 17,0 9 5 13 7 WNW 1015,6 20 19 0,0
17.07.2018 06:00:00 15,4 11,6 13,1 21,1 17,0 5 3 9 5 WNW 1015,2 20 0 0,0
17.07.2018 05:00:00 15,7 12,1 13,4 21,2 17,0 2 1 11 6 WNW 1014,8 11 0 0,0
17.07.2018 04:00:00 17,6 12,7 16,0 21,3 17,0 7 4 15 8 W 1014,7 20 0 0,0
17.07.2018 03:00:00 17,8 13,3 17,0 21,4 17,0 12 6 16 8 WNW 1014,5 20 0 0,0
17.07.2018 02:00:00 18,6 13,2 17,7 21,4 17,0 10 6 19 10 NW 1014,5 20 0 0,0
17.07.2018 01:00:00 18,9 13,7 15,2 21,5 17,0 9 5 14 8 NW 1014,3 20 0 0,0
17.07.2018 00:00:00 18,1 13,4 15,2 21,5 17,0 1 1 9 5 SSW 1013,9 2,5 0 0,0
16.07.2018 23:00:00 20,8 13,0 17,9 21,5 17,0 10 5 14 8 WNW 1013,3 17 0 0,0
16.07.2018 22:00:00 22,5 13,3 19,4 21,6 17,0 5 3 14 7 NW 1012,8 14 15 0,0
16.07.2018 21:00:00 24,3 13,8 23,9 21,5 17,0 10 5 18 10 WNW 1012,1 20 39 0,0
16.07.2018 20:00:00 24,7 12,6 24,3 21,5 17,0 11 6 26 14 WNW 1011,9 20 0 0,0
16.07.2018 19:00:00 26,7 11,6 26,8 21,3 17,0 17 9 31 17 NW 1011,1 20 9 0,0
16.07.2018 18:00:00 30,8 9,1 30,6 21,1 17,0 7 4 16 9 SW 1010,6 20 47 0,0
16.07.2018 17:00:00 30,2 9,1 32,9 20,9 17,0 8 4 16 8 W 1010,7 20 46 0,0
16.07.2018 16:00:00 30,1 12,5 33,4 20,7 17,0 8 4 27 14 S 1011,0 20 57 0,0
16.07.2018 15:00:00 29,5 14,5 35,1 20,5 17,0 7 4 21 12 NE 1011,5 20 55 0,0
16.07.2018 14:00:00 28,2 13,7 35,9 20,3 17,0 7 4 18 10 NNW 1012,0 20 57 0,0
16.07.2018 13:00:00 28,3 15,2 31,8 20,2 17,0 6 3 15 8 SSE 1012,4 20 51 0,0
16.07.2018 12:00:00 26,6 14,4 33,0 20,1 17,0 9 5 16 9 SE 1012,9 20 60 0,0
16.07.2018 11:00:00 24,8 14,9 27,7 20,2 17,0 6 4 12 7 SSE 1013,2 20 60 0,0
16.07.2018 10:00:00 23,2 15,0 25,2 20,2 17,0 4 2 9 5 SE 1013,6 18 60 0,0
16.07.2018 09:00:00 20,5 14,6 23,5 20,3 17,0 5 3 9 5 SE 1014,0 20 60 0,0
16.07.2018 08:00:00 17,6 15,4 14,1 20,4 17,0 3 2 6 3 S 1014,2 12 46 0,0
16.07.2018 07:00:00 14,0 13,5 10,7 20,5 17,0 2 1 4 2 ENE 1014,7 11 31 0,0
16.07.2018 06:00:00 13,4 12,9 11,3 20,6 17,0 3 1 4 2 SE 1014,5 1,3 0 0,0
16.07.2018 05:00:00 13,5 12,9 11,3 20,7 17,0 2 1 5 3 E 1014,4 12 0 0,0
16.07.2018 04:00:00 13,9 13,3 11,6 20,8 17,0 3 1 4 2 E 1014,5 1,6 0 0,0
16.07.2018 03:00:00 15,1 14,3 12,8 20,9 17,0 1 1 4 2 W 1014,6 11 0 0,0
16.07.2018 02:00:00 15,5 14,7 13,0 21,0 17,0 1 0 4 2 SE 1014,8 15 0 0,0
16.07.2018 01:00:00 16,1 14,8 13,5 21,1 17,0 3 2 8 5 SSE 1014,8 12 0 0,0
16.07.2018 00:00:00 17,4 15,6 14,5 21,1 17,0 2 1 22 12 E 1014,7 18 0 0,0
15.07.2018 23:00:00 16,7 14,7 15,0 21,1 17,0 6 4 14 8 ESE 1014,7 18 0 0,0
15.07.2018 22:00:00 19,7 16,2 16,2 21,2 17,0 2 1 5 3 ESE 1014,1 14 8 0,0
15.07.2018 21:00:00 22,4 17,3 20,8 21,1 17,0 3 2 7 4 SE 1013,5 20 9 0,0
15.07.2018 20:00:00 26,8 15,8 27,3 21,0 17,0 3 1 9 5 SSE 1012,9 20 60 0,0
15.07.2018 19:00:00 26,6 16,2 27,4 20,9 17,0 6 4 18 10 SSE 1012,9 20 60 0,0
15.07.2018 18:00:00 26,6 16,5 28,7 20,7 17,0 10 6 24 13 SSE 1013,1 20 47 0,0
15.07.2018 17:00:00 26,5 16,1 29,1 20,5 16,9 17 9 29 15 SE 1013,3 20 18 0,0
15.07.2018 16:00:00 27,7 11,3 29,8 20,4 16,9 9 5 24 13 NNW 1013,4 20 29 0,0
15.07.2018 15:00:00 28,9 12,7 28,6 20,2 17,0 3 2 19 10 NNE 1013,8 20 25 0,0
15.07.2018 14:00:00 29,1 13,3 33,0 20,0 17,0 6 4 21 11 SW 1014,3 20 50 0,0
15.07.2018 13:00:00 27,9 15,2 36,8 19,9 17,0 7 4 20 11 NE 1014,9 20 60 0,0
15.07.2018 12:00:00 26,8 15,2 33,4 19,8 16,9 5 3 17 9 SSE 1015,4 12 60 0,0
15.07.2018 11:00:00 25,0 14,8 28,3 19,8 17,0 6 3 16 8 ESE 1016,1 18 60 0,0
15.07.2018 10:00:00 23,7 14,9 26,6 19,9 17,0 4 2 10 5 S 1016,4 20 60 0,0
15.07.2018 09:00:00 20,7 14,3 21,6 20,0 16,9 3 2 6 3 SW 1016,7 18 60 0,0
15.07.2018 08:00:00 16,0 12,7 15,5 20,1 17,0 3 2 7 4 WSW 1017,1 20 60 0,0
15.07.2018 07:00:00 12,7 12,1 8,8 20,2 17,0 3 1 5 3 WNW 1017,0 19 38 0,0
15.07.2018 06:00:00 11,2 10,6 8,1 20,4 17,0 1 1 4 2 WSW 1017,3 9 0 0,0
15.07.2018 05:00:00 11,5 10,4 8,2 20,5 16,9 1 1 5 3 NNW 1017,4 13 0 0,0
15.07.2018 04:00:00 12,3 11,0 9,3 20,6 16,9 2 1 8 4 NW 1017,5 18 0 0,0
15.07.2018 03:00:00 13,3 11,2 10,4 20,7 17,0 4 2 8 4 W 1017,7 19 0 0,0
15.07.2018 02:00:00 14,3 12,0 10,9 20,8 16,9 3 1 8 4 NE 1017,9 20 0 0,0
15.07.2018 01:00:00 16,2 12,2 13,2 20,8 16,9 4 2 13 7 S 1017,7 20 0 0,0
15.07.2018 00:00:00 17,2 12,9 13,3 20,9 16,9 4 2 8 5 NW 1017,5 20 0 0,0
14.07.2018 23:00:00 18,8 13,0 14,6 20,9 16,9 3 1 6 3 WNW 1017,2 20 0 0,0
14.07.2018 22:00:00 22,3 13,9 18,5 20,9 17,0 5 3 12 6 NNW 1016,8 20 16 0,0
14.07.2018 21:00:00 24,6 13,5 22,9 20,8 16,9 8 4 25 14 N 1016,4 20 60 0,0
14.07.2018 20:00:00 26,4 13,8 25,8 20,7 16,9 12 6 20 11 N 1016,2 20 50 0,0
14.07.2018 19:00:00 27,5 13,4 28,5 20,6 17,0 14 8 27 15 N 1016,2 20 60 0,0
14.07.2018 18:00:00 28,8 11,8 30,3 20,4 17,0 8 5 23 12 NW 1016,5 20 60 0,0
14.07.2018 17:00:00 29,4 13,2 30,7 20,2 16,9 5 3 22 12 NW 1016,6 20 57 0,0
14.07.2018 16:00:00 28,4 14,2 31,1 20,0 16,9 10 5 20 11 NNE 1017,0 20 55 0,0
14.07.2018 15:00:00 27,8 12,2 32,5 19,8 16,9 4 2 20 11 SSE 1017,6 20 45 0,0
14.07.2018 14:00:00 27,4 13,7 33,9 19,6 16,9 8 4 22 12 ESE 1018,0 20 56 0,0
14.07.2018 13:00:00 26,6 13,0 33,5 19,5 16,9 10 5 22 12 N 1018,4 20 60 0,0
14.07.2018 12:00:00 25,9 14,4 32,2 19,5 17,0 12 6 25 13 NE 1018,9 20 60 0,0
14.07.2018 11:00:00 25,3 15,0 27,9 19,5 16,9 7 4 20 11 NNE 1019,4 20 60 0,0
14.07.2018 10:00:00 22,6 15,7 26,3 19,5 17,0 3 2 11 6 WSW 1019,7 19 60 0,0
14.07.2018 09:00:00 20,1 15,3 22,2 19,6 16,9 4 2 11 6 WNW 1019,9 20 58 0,0
14.07.2018 08:00:00 16,6 15,5 14,5 19,7 17,0 4 2 7 4 WNW 1020,1 14 52 0,0
14.07.2018 07:00:00 13,4 12,9 9,3 19,8 17,0 1 1 4 2 SW 1020,3 11 19 0,0
14.07.2018 06:00:00 12,6 12,1 8,9 19,8 17,0 1 1 3 1 E 1020,3 3,6 0 0,0
14.07.2018 05:00:00 13,2 12,6 9,9 19,9 16,9 2 1 3 2 ESE 1020,2 1,4 0 0,0
14.07.2018 04:00:00 14,8 14,2 12,8 20,0 17,0 2 1 4 2 SSW 1019,9 16 0 0,0
14.07.2018 03:00:00 15,6 14,8 14,9 20,0 17,0 3 1 5 3 ESE 1020,2 8 0 0,0
14.07.2018 02:00:00 16,1 15,0 14,9 20,1 17,0 1 1 6 4 NW 1020,3 19 0 0,0
14.07.2018 01:00:00 16,3 15,3 15,2 20,1 17,0 5 3 8 4 WNW 1020,5 18 0 0,0
14.07.2018 00:00:00 17,1 14,9 16,3 20,2 16,9 4 2 9 5 W 1020,2 20 0 0,2
13.07.2018 23:00:00 18,0 14,1 16,8 20,2 16,9 5 3 8 5 WNW 1020,2 20 0 0,0
13.07.2018 22:00:00 18,6 13,7 17,5 20,3 17,0 3 2 8 5 WSW 1019,9 1,6 0 0,0
13.07.2018 21:00:00 19,6 14,0 19,4 20,2 17,0 6 3 15 8 W 1019,3 20 0 0,0
13.07.2018 20:00:00 19,9 13,4 19,8 20,2 17,0 5 3 24 13 N 1019,2 20 0 0,0
13.07.2018 19:00:00 19,0 13,4 18,0 20,1 17,0 15 8 42 23 N 1019,7 20 0 0,0
13.07.2018 18:00:00 19,8 14,4 20,6 20,0 17,0 23 13 37 20 NNW 1019,9 20 0 0,0
13.07.2018 17:00:00 23,5 14,8 24,2 19,9 16,9 14 8 25 14 N 1019,3 20 0 0,0
13.07.2018 16:00:00 24,7 14,2 27,9 19,8 17,0 8 4 19 10 NNW 1019,2 20 7 0,0
13.07.2018 15:00:00 26,5 14,3 31,2 19,6 16,9 10 5 25 13 ENE 1019,1 20 56 0,0
13.07.2018 14:00:00 24,0 16,8 24,3 19,5 17,0 12 7 23 13 ENE 1019,7 20 2 0,0
13.07.2018 13:00:00 23,4 14,1 24,6 19,3 16,9 14 8 26 14 NNE 1020,0 20 27 0,0

tt = temperature
td = dewpoint
tt 5cm = temperature 5cm
tt -20cm = temperature -20cm
tt -100cm = temperature -100cm
ff = wind speed
fx = gusts
dd = wind direction
ppp = reduced air pressure
vv = visibility
sd = sunshine duration
rr = precipitation

Next stations